Weather History for KTAN - September, 2012

Change the Weather History Date:

Tuesday, September 4, 2012

  Actual Average Record
Temperature  
Mean Temperature 68 °F -  
Max Temperature 75 °F 76 °F 92 °F (1973)
Min Temperature 60 °F 55 °F 42 °F (1949)
Cooling Degree Days 2    
Growing Degree Days 18 (Base 50)    
Moisture  
Dew Point 68 °F    
Average Humidity 89    
Maximum Humidity 94    
Minimum Humidity 73    
Precipitation  
Precipitation 0.31 in - - ()
Sea Level Pressure  
Sea Level Pressure 30.01 in    
Wind  
Wind Speed 3 mph (SSE)    
Max Wind Speed 9 mph    
Max Gust Speed -    
Visibility 8 miles    
Events Rain    
Averages and records for this station are not official NWS values.
T = Trace of Precipitation, MM = Missing Value Source: NWS Daily Summary

Daily Weather History Graph

Daily Weather History Graph

Search for Another Location

Airport or City:

Trip Planner

Search our weather history database for the weather conditions in past years. The results will help you decide how hot, cold, wet, or windy it might be!

Date:

Astronomy

Sep. 04, 2012 Rise Set
Actual Time 6:13 AM EDT 7:11 PM EDT
Civil Twilight 5:44 AM EDT 7:40 PM EDT
Nautical Twilight 5:10 AM EDT 8:13 PM EDT
Astronomical Twilight 4:35 AM EDT 8:49 PM EDT
Moon 8:57 PM EDT (9/4) 10:22 AM EDT (9/4)
Length of Visible Light 13h 55m
Length of Day
12h 58m
Waning Gibbous, 84% of the Moon is Illuminated
Sep 4
Waning Gibbous
Sep 8
Last Quarter
Sep 15
New
Sep 22
First Quarter
Sep 29
Full

Hourly Weather History & Observations

Time (EDT) Temp. Dew Point Humidity Pressure Visibility Wind Dir Wind Speed Gust Speed Precip Events Conditions
12:52 AM 60.1 °F 57.0 °F 90% 30.16 in 10.0 mi Calm Calm - N/A   Overcast
1:52 AM 61.0 °F 57.9 °F 90% 30.14 in 10.0 mi Calm Calm - N/A   Overcast
2:52 AM 62.1 °F 59.0 °F 90% 30.14 in 10.0 mi Calm Calm - 0.00 in   Overcast
3:52 AM 62.1 °F 60.1 °F 93% 30.12 in 10.0 mi Calm Calm - N/A   Overcast
4:52 AM 63.0 °F 61.0 °F 93% 30.11 in 10.0 mi Calm Calm - N/A   Overcast
5:52 AM 64.0 °F 61.0 °F 90% 30.11 in 10.0 mi Calm Calm - N/A   Overcast
6:52 AM 64.9 °F 62.1 °F 90% 30.12 in 10.0 mi Calm Calm - N/A   Overcast
7:52 AM 68.0 °F 64.0 °F 87% 30.11 in 8.0 mi SE 6.9 mph - 0.00 in Rain Light Rain
8:52 AM 68.0 °F 63.0 °F 84% 30.09 in 10.0 mi SE 6.9 mph - 0.01 in   Overcast
9:52 AM 70.0 °F 66.0 °F 87% 30.09 in 10.0 mi SE 6.9 mph - 0.00 in Rain Light Rain
10:52 AM 72.0 °F 66.0 °F 81% 30.08 in 10.0 mi SSE 6.9 mph - 0.00 in   Overcast
10:59 AM 73.0 °F 66.0 °F 79% 30.08 in 10.0 mi Variable 3.5 mph - N/A   Overcast
11:07 AM 73.9 °F 66.9 °F 79% 30.07 in 10.0 mi Variable 4.6 mph - N/A   Overcast
11:30 AM 73.0 °F 66.9 °F 81% 30.07 in 8.0 mi SE 8.1 mph - 0.00 in Rain Light Rain
11:52 AM 73.9 °F 66.9 °F 79% 30.06 in 10.0 mi SE 9.2 mph - 0.00 in   Overcast
12:52 PM 75.0 °F 66.0 °F 73% 30.04 in 10.0 mi SSE 9.2 mph - N/A   Overcast
1:52 PM 73.0 °F 68.0 °F 84% 30.02 in 4.0 mi SSE 5.8 mph - 0.02 in Rain Heavy Rain
2:34 PM 72.0 °F 69.1 °F 91% 30.00 in 2.5 mi SE 6.9 mph - 0.11 in Rain Light Rain
2:42 PM 73.0 °F 69.1 °F 87% 30.00 in 10.0 mi SE 5.8 mph - 0.11 in   Overcast
2:52 PM 73.0 °F 69.1 °F 87% 29.99 in 10.0 mi SE 5.8 mph - 0.11 in   Overcast
3:23 PM 73.0 °F 69.1 °F 87% 29.99 in 2.5 mi West 8.1 mph - 0.05 in Rain Rain
3:30 PM 72.0 °F 69.1 °F 91% 29.99 in 1.5 mi West 3.5 mph - 0.07 in Rain Rain
3:34 PM 72.0 °F 69.1 °F 91% 29.99 in 4.0 mi SW 3.5 mph - 0.07 in Rain Light Rain
4:03 PM 73.0 °F 69.1 °F 87% 29.97 in 6.0 mi South 3.5 mph - 0.01 in Rain Light Rain
4:09 PM 72.0 °F 69.1 °F 91% 29.97 in 1.8 mi Calm Calm - 0.05 in Rain Heavy Rain
4:16 PM 72.0 °F 70.0 °F 93% 29.97 in 0.8 mi Calm Calm - 0.12 in Rain Heavy Rain
4:24 PM 72.0 °F 70.0 °F 93% 29.97 in 1.5 mi SSW 3.5 mph - 0.13 in Rain Light Rain
4:26 PM 72.0 °F 70.0 °F 93% 29.97 in 3.0 mi Calm Calm - 0.13 in Rain Light Rain
4:52 PM 73.0 °F 70.0 °F 90% 29.97 in 10.0 mi Calm Calm - 0.14 in Rain Light Rain
5:41 PM 73.9 °F 71.1 °F 91% 29.96 in 10.0 mi SE 3.5 mph - 0.00 in   Overcast
5:52 PM 73.9 °F 71.1 °F 91% 29.96 in 10.0 mi SE 3.5 mph - 0.00 in   Overcast
6:15 PM 73.9 °F 72.0 °F 93% 29.96 in 6.0 mi SSE 4.6 mph - 0.00 in Rain Light Rain
6:30 PM 73.9 °F 71.1 °F 91% 29.96 in 6.0 mi South 5.8 mph - 0.01 in Rain Light Rain
6:52 PM 73.9 °F 71.1 °F 91% 29.95 in 9.0 mi South 4.6 mph - 0.02 in   Mostly Cloudy
7:02 PM 73.9 °F 71.1 °F 91% 29.95 in 8.0 mi SSE 3.5 mph - N/A   Overcast
7:39 PM 73.0 °F 71.1 °F 93% 29.94 in 9.0 mi South 5.8 mph - 0.00 in   Overcast
7:52 PM 73.0 °F 71.1 °F 93% 29.94 in 10.0 mi SSE 5.8 mph - 0.00 in   Overcast
8:19 PM 73.0 °F 70.0 °F 90% 29.94 in 10.0 mi SSE 5.8 mph - N/A   Overcast
8:52 PM 73.0 °F 70.0 °F 90% 29.93 in 9.0 mi SSE 3.5 mph - N/A   Mostly Cloudy
9:01 PM 73.0 °F 70.0 °F 90% 29.93 in 8.0 mi SSE 4.6 mph - N/A   Overcast
9:30 PM 73.0 °F 71.1 °F 93% 29.93 in 7.0 mi Calm Calm - N/A   Overcast
9:52 PM 73.9 °F 71.1 °F 91% 29.93 in 9.0 mi South 3.5 mph - 0.01 in Rain Light Rain
10:34 PM 73.9 °F 72.0 °F 93% 29.91 in 8.0 mi SSE 5.8 mph - 0.00 in   Overcast
10:48 PM 73.4 °F 71.6 °F 94% 29.91 in 8.0 mi South 4.6 mph - 0.00 in   Overcast
10:52 PM 73.9 °F 72.0 °F 93% 29.91 in 8.0 mi South 3.5 mph - 0.00 in   Overcast
11:52 PM 75.0 °F 72.0 °F 90% 29.89 in 8.0 mi South 4.6 mph - N/A   Overcast